Time,TemperatureF,DewpointF,PressureIn,WindDirection,WindDirectionDegrees,WindSpeedMPH,WindSpeedGustMPH,Humidity,HourlyPrecipIn,Conditions,Clouds,dailyrainin,SolarRadiationWatts/m^2,SoftwareType,DateUTC
2013-04-29 00:01:00,46.0,46.0,-100.00,NNE,27,1.0,8.0,100,0.00,,,0.00,0.000000,,2013-04-29 05:01:00,
2013-04-29 00:32:00,46.0,46.0,-100.00,NNE,27,1.0,8.0,100,0.00,,,0.00,0.000000,,2013-04-29 05:32:00,
2013-04-29 00:42:00,46.0,46.0,-100.00,NNE,27,1.0,8.0,100,0.00,,,0.00,0.000000,,2013-04-29 05:42:00,
2013-04-29 00:52:00,46.0,46.0,-100.00,NNE,27,1.0,8.0,100,0.00,,,0.00,0.000000,,2013-04-29 05:52:00,
2013-04-29 01:01:00,41.0,41.0,-100.00,South,187,1.0,4.0,100,0.00,,,0.00,0.000000,,2013-04-29 06:01:00,
2013-04-29 01:22:00,41.0,41.0,-100.00,South,187,1.0,4.0,100,0.00,,,0.00,0.000000,,2013-04-29 06:22:00,
2013-04-29 01:32:00,41.0,41.0,-100.00,South,187,1.0,4.0,100,0.00,,,0.00,0.000000,,2013-04-29 06:32:00,
2013-04-29 01:42:00,41.0,41.0,-100.00,South,187,1.0,4.0,100,0.00,,,0.00,0.000000,,2013-04-29 06:42:00,
2013-04-29 01:52:00,41.0,41.0,-100.00,South,187,1.0,4.0,100,0.00,,,0.00,0.000000,,2013-04-29 06:52:00,
2013-04-29 02:01:00,50.0,50.0,-100.00,SSW,202,5.0,10.0,100,0.00,,,0.00,0.000000,,2013-04-29 07:01:00,
2013-04-29 02:32:00,50.0,50.0,-100.00,SSW,202,5.0,10.0,100,0.00,,,0.00,0.000000,,2013-04-29 07:32:00,
2013-04-29 02:42:00,50.0,50.0,-100.00,SSW,202,5.0,10.0,100,0.00,,,0.00,0.000000,,2013-04-29 07:42:00,
2013-04-29 02:52:00,50.0,50.0,-100.00,SSW,202,5.0,10.0,100,0.00,,,0.00,0.000000,,2013-04-29 07:52:00,
2013-04-29 03:01:00,43.0,43.0,-100.00,WSW,239,0.0,7.0,100,0.00,,,0.00,0.000000,,2013-04-29 08:01:00,
2013-04-29 03:22:00,43.0,43.0,-100.00,WSW,239,0.0,7.0,100,0.00,,,0.00,0.000000,,2013-04-29 08:22:00,
2013-04-29 03:32:00,43.0,43.0,-100.00,WSW,239,0.0,7.0,100,0.00,,,0.00,0.000000,,2013-04-29 08:32:00,
2013-04-29 03:42:00,43.0,43.0,-100.00,WSW,239,0.0,7.0,100,0.00,,,0.00,0.000000,,2013-04-29 08:42:00,
2013-04-29 03:52:00,43.0,43.0,-100.00,WSW,239,0.0,7.0,100,0.00,,,0.00,0.000000,,2013-04-29 08:52:00,
2013-04-29 04:01:00,38.0,38.0,-100.00,WNW,286,0.0,3.0,100,0.00,,,0.00,0.000000,,2013-04-29 09:01:00,
2013-04-29 04:22:00,38.0,38.0,-100.00,WNW,286,0.0,3.0,100,0.00,,,0.00,0.000000,,2013-04-29 09:22:00,
2013-04-29 04:33:00,38.0,38.0,-100.00,WNW,286,0.0,3.0,100,0.00,,,0.00,0.000000,,2013-04-29 09:33:00,
2013-04-29 04:42:00,38.0,38.0,-100.00,WNW,286,0.0,3.0,100,0.00,,,0.00,0.000000,,2013-04-29 09:42:00,
2013-04-29 04:53:00,38.0,38.0,-100.00,WNW,286,0.0,3.0,100,0.00,,,0.00,0.000000,,2013-04-29 09:53:00,
2013-04-29 05:01:00,36.0,36.0,-100.00,West,273,1.0,3.0,100,0.00,,,0.00,0.000000,,2013-04-29 10:01:00,
2013-04-29 05:32:00,36.0,36.0,-100.00,West,273,1.0,3.0,100,0.00,,,0.00,0.000000,,2013-04-29 10:32:00,
2013-04-29 05:42:00,36.0,36.0,-100.00,West,273,1.0,3.0,100,0.00,,,0.00,0.000000,,2013-04-29 10:42:00,
2013-04-29 05:52:00,36.0,36.0,-100.00,West,273,1.0,3.0,100,0.00,,,0.00,0.000000,,2013-04-29 10:52:00,
2013-04-29 06:01:00,35.0,35.0,-100.00,WSW,253,0.0,2.0,100,0.00,,,0.00,1.000000,,2013-04-29 11:01:00,
2013-04-29 06:22:00,35.0,35.0,-100.00,WSW,253,0.0,2.0,100,0.00,,,0.00,1.000000,,2013-04-29 11:22:00,
2013-04-29 06:32:00,35.0,35.0,-100.00,WSW,253,0.0,2.0,100,0.00,,,0.00,1.000000,,2013-04-29 11:32:00,
2013-04-29 06:42:00,35.0,35.0,-100.00,WSW,253,0.0,2.0,100,0.00,,,0.00,1.000000,,2013-04-29 11:42:00,
2013-04-29 06:52:00,35.0,35.0,-100.00,WSW,253,0.0,2.0,100,0.00,,,0.00,1.000000,,2013-04-29 11:52:00,
2013-04-29 07:01:00,36.0,36.0,-100.00,SW,224,0.0,0.0,100,0.00,,,0.00,43.000000,,2013-04-29 12:01:00,
2013-04-29 07:22:00,36.0,36.0,-100.00,SW,224,0.0,0.0,100,0.00,,,0.00,43.000000,,2013-04-29 12:22:00,
2013-04-29 07:32:00,36.0,36.0,-100.00,SW,224,0.0,0.0,100,0.00,,,0.00,43.000000,,2013-04-29 12:32:00,
2013-04-29 07:42:00,36.0,36.0,-100.00,SW,224,0.0,0.0,100,0.00,,,0.00,43.000000,,2013-04-29 12:42:00,
2013-04-29 07:52:00,36.0,36.0,-100.00,SW,224,0.0,0.0,100,0.00,,,0.00,43.000000,,2013-04-29 12:52:00,
2013-04-29 08:01:00,45.0,45.0,-100.00,NNE,16,0.0,0.0,99,0.00,,,0.00,161.000000,,2013-04-29 13:01:00,
2013-04-29 08:21:00,45.0,45.0,-100.00,NNE,16,0.0,0.0,99,0.00,,,0.00,161.000000,,2013-04-29 13:21:00,
2013-04-29 08:32:00,45.0,45.0,-100.00,NNE,16,0.0,0.0,99,0.00,,,0.00,161.000000,,2013-04-29 13:32:00,
2013-04-29 08:42:00,45.0,45.0,-100.00,NNE,16,0.0,0.0,99,0.00,,,0.00,161.000000,,2013-04-29 13:42:00,
2013-04-29 08:52:00,45.0,45.0,-100.00,NNE,16,0.0,0.0,99,0.00,,,0.00,161.000000,,2013-04-29 13:52:00,
2013-04-29 09:01:00,53.0,48.0,-100.00,WNW,286,3.0,5.0,83,0.00,,,0.00,438.000000,,2013-04-29 14:01:00,
2013-04-29 09:22:00,53.0,48.0,-100.00,WNW,286,3.0,5.0,83,0.00,,,0.00,438.000000,,2013-04-29 14:22:00,
2013-04-29 09:32:00,53.0,48.0,-100.00,WNW,286,3.0,5.0,83,0.00,,,0.00,438.000000,,2013-04-29 14:32:00,
2013-04-29 09:42:00,53.0,48.0,-100.00,WNW,286,3.0,5.0,83,0.00,,,0.00,438.000000,,2013-04-29 14:42:00,
2013-04-29 09:52:00,53.0,48.0,-100.00,WNW,286,3.0,5.0,83,0.00,,,0.00,438.000000,,2013-04-29 14:52:00,
2013-04-29 10:01:00,56.0,45.0,-100.00,NW,306,4.0,6.0,66,0.00,,,0.00,635.000000,,2013-04-29 15:01:00,
2013-04-29 10:33:00,56.0,45.0,-100.00,NW,306,4.0,6.0,66,0.00,,,0.00,635.000000,,2013-04-29 15:33:00,
2013-04-29 10:43:00,56.0,45.0,-100.00,NW,306,4.0,6.0,66,0.00,,,0.00,635.000000,,2013-04-29 15:43:00,
2013-04-29 10:53:00,56.0,45.0,-100.00,NW,306,4.0,6.0,66,0.00,,,0.00,635.000000,,2013-04-29 15:53:00,
2013-04-29 11:01:00,63.0,45.0,-100.00,ENE,61,0.0,4.0,51,0.00,,,0.00,803.000000,,2013-04-29 16:01:00,
2013-04-29 11:33:00,63.0,45.0,-100.00,ENE,61,0.0,4.0,51,0.00,,,0.00,803.000000,,2013-04-29 16:33:00,
2013-04-29 11:42:00,63.0,45.0,-100.00,ENE,61,0.0,4.0,51,0.00,,,0.00,803.000000,,2013-04-29 16:42:00,
2013-04-29 11:52:00,63.0,45.0,-100.00,ENE,61,0.0,4.0,51,0.00,,,0.00,803.000000,,2013-04-29 16:52:00,
2013-04-29 12:01:00,63.0,45.0,-100.00,NE,45,2.0,4.0,51,0.00,,,0.00,920.000000,,2013-04-29 17:01:00,
2013-04-29 12:32:00,63.0,45.0,-100.00,NE,45,2.0,4.0,51,0.00,,,0.00,920.000000,,2013-04-29 17:32:00,
2013-04-29 12:42:00,63.0,45.0,-100.00,NE,45,2.0,4.0,51,0.00,,,0.00,920.000000,,2013-04-29 17:42:00,
2013-04-29 12:52:00,63.0,45.0,-100.00,NE,45,2.0,4.0,51,0.00,,,0.00,920.000000,,2013-04-29 17:52:00,
2013-04-29 13:01:00,65.0,44.0,-100.00,SSW,194,3.0,7.0,46,0.00,,,0.00,983.000000,,2013-04-29 18:01:00,
2013-04-29 13:22:00,65.0,44.0,-100.00,SSW,194,3.0,7.0,46,0.00,,,0.00,983.000000,,2013-04-29 18:22:00,
2013-04-29 13:32:00,65.0,44.0,-100.00,SSW,194,3.0,7.0,46,0.00,,,0.00,983.000000,,2013-04-29 18:32:00,
2013-04-29 13:42:00,65.0,44.0,-100.00,SSW,194,3.0,7.0,46,0.00,,,0.00,983.000000,,2013-04-29 18:42:00,
2013-04-29 13:52:00,65.0,44.0,-100.00,SSW,194,3.0,7.0,46,0.00,,,0.00,983.000000,,2013-04-29 18:52:00,
2013-04-29 14:01:00,67.0,42.0,-100.00,SSE,163,5.0,11.0,40,0.00,,,0.00,922.000000,,2013-04-29 19:01:00,
2013-04-29 14:22:00,67.0,42.0,-100.00,SSE,163,5.0,11.0,40,0.00,,,0.00,922.000000,,2013-04-29 19:22:00,
2013-04-29 14:32:00,67.0,42.0,-100.00,SSE,163,5.0,11.0,40,0.00,,,0.00,922.000000,,2013-04-29 19:32:00,
2013-04-29 14:42:00,67.0,42.0,-100.00,SSE,163,5.0,11.0,40,0.00,,,0.00,922.000000,,2013-04-29 19:42:00,
2013-04-29 14:52:00,67.0,42.0,-100.00,SSE,163,5.0,11.0,40,0.00,,,0.00,922.000000,,2013-04-29 19:52:00,
2013-04-29 15:01:00,68.0,41.0,-100.00,SW,222,5.0,12.0,38,0.00,,,0.00,893.000000,,2013-04-29 20:01:00,
2013-04-29 15:32:00,68.0,41.0,-100.00,SW,222,5.0,12.0,38,0.00,,,0.00,893.000000,,2013-04-29 20:32:00,
2013-04-29 15:42:00,68.0,41.0,-100.00,SW,222,5.0,12.0,38,0.00,,,0.00,893.000000,,2013-04-29 20:42:00,
2013-04-29 15:52:00,68.0,41.0,-100.00,SW,222,5.0,12.0,38,0.00,,,0.00,893.000000,,2013-04-29 20:52:00,
2013-04-29 16:01:00,68.0,41.0,-100.00,SSW,194,5.0,12.0,38,0.00,,,0.00,784.000000,,2013-04-29 21:01:00,
2013-04-29 16:22:00,68.0,41.0,-100.00,SSW,194,5.0,12.0,38,0.00,,,0.00,784.000000,,2013-04-29 21:22:00,
2013-04-29 16:33:00,68.0,41.0,-100.00,SSW,194,5.0,12.0,38,0.00,,,0.00,784.000000,,2013-04-29 21:33:00,
2013-04-29 16:43:00,68.0,41.0,-100.00,SSW,194,5.0,12.0,38,0.00,,,0.00,784.000000,,2013-04-29 21:43:00,
2013-04-29 16:53:00,68.0,41.0,-100.00,SSW,194,5.0,12.0,38,0.00,,,0.00,784.000000,,2013-04-29 21:53:00,
2013-04-29 17:01:00,68.0,40.0,-100.00,SW,216,4.0,10.0,36,0.00,,,0.00,591.000000,,2013-04-29 22:01:00,
2013-04-29 17:32:00,68.0,40.0,-100.00,SW,216,4.0,10.0,36,0.00,,,0.00,591.000000,,2013-04-29 22:32:00,
2013-04-29 17:42:00,68.0,40.0,-100.00,SW,216,4.0,10.0,36,0.00,,,0.00,591.000000,,2013-04-29 22:42:00,
2013-04-29 17:53:00,68.0,40.0,-100.00,SW,216,4.0,10.0,36,0.00,,,0.00,591.000000,,2013-04-29 22:53:00,
2013-04-29 18:01:00,70.0,43.0,-100.00,SW,217,2.0,10.0,37,0.00,,,0.00,437.000000,,2013-04-29 23:01:00,
2013-04-29 18:32:00,70.0,43.0,-100.00,SW,217,2.0,10.0,37,0.00,,,0.00,437.000000,,2013-04-29 23:32:00,
2013-04-29 18:42:00,70.0,43.0,-100.00,SW,217,2.0,10.0,37,0.00,,,0.00,437.000000,,2013-04-29 23:42:00,
2013-04-29 18:52:00,70.0,43.0,-100.00,SW,217,2.0,10.0,37,0.00,,,0.00,437.000000,,2013-04-29 23:52:00,
2013-04-29 19:01:00,65.0,41.0,-100.00,SE,134,3.0,7.0,42,0.00,,,0.00,189.000000,,2013-04-30 00:01:00,
2013-04-29 19:32:00,65.0,41.0,-100.00,SE,134,3.0,7.0,42,0.00,,,0.00,189.000000,,2013-04-30 00:32:00,
2013-04-29 19:42:00,65.0,41.0,-100.00,SE,134,3.0,7.0,42,0.00,,,0.00,189.000000,,2013-04-30 00:42:00,
2013-04-29 19:52:00,65.0,41.0,-100.00,SE,134,3.0,7.0,42,0.00,,,0.00,189.000000,,2013-04-30 00:52:00,
2013-04-29 21:01:00,49.0,41.0,-100.00,SE,135,3.0,7.0,75,-99.99,,,0.00,1.000000,,2013-04-30 02:01:00,
2013-04-29 21:21:00,49.0,41.0,-100.00,SE,135,3.0,7.0,75,-99.99,,,0.00,1.000000,,2013-04-30 02:21:00,
2013-04-29 21:32:00,49.0,41.0,-100.00,SE,135,3.0,7.0,75,-99.99,,,0.00,1.000000,,2013-04-30 02:32:00,
2013-04-29 21:42:00,49.0,41.0,-100.00,SE,135,3.0,7.0,75,-99.99,,,0.00,1.000000,,2013-04-30 02:42:00,
2013-04-29 21:51:00,49.0,41.0,-100.00,SE,135,3.0,7.0,75,-99.99,,,0.00,1.000000,,2013-04-30 02:51:00,